Theta_e
301 302 303 303 304 305 304 304 304 304 303 303 303 304 304 304 305 306 303 301 302 300 299 300 300 301 300 301 302 300 302 301 301 307 310 312 317 317 320 319 319 319 320 322 322 327 334 319 319 327 320 318 321 327
302 305 307 305 306 305 304 304 304 304 304 304 304 304 304 304 305 306 304 301 301 302 298 302 302 302 302 301 300 298 300 300 300 303 305 307 314 315 315 325 311 318 312 315 323 325 320 316 315 314 313 315 318 318
305 308 306 305 304 304 304 304 304 304 304 304 304 304 304 304 305 306 305 301 301 302 299 297 299 301 302 302 303 300 297 298 299 298 302 304 309 310 316 315 310 310 309 316 322 321 311 314 312 310 311 314 315 317
303 307 305 305 304 304 304 304 304 304 304 304 305 305 304 304 305 305 305 304 302 302 301 299 300 300 302 302 302 302 299 298 296 296 299 301 306 305 311 309 309 308 309 313 314 310 311 313 310 310 312 313 314 316
303 307 305 305 305 304 304 304 304 304 304 304 304 305 304 304 305 305 305 305 303 302 303 300 301 301 302 302 302 301 300 297 297 299 299 301 300 302 303 306 309 308 310 312 315 308 309 309 309 309 310 310 312 315
303 308 305 305 306 305 305 304 304 304 304 304 304 304 305 305 305 306 303 304 304 303 302 306 302 301 302 301 299 297 298 296 296 297 298 297 297 302 302 305 306 307 305 304 305 304 306 306 307 309 308 310 311 317
304 310 306 306 306 306 305 305 305 305 305 304 304 305 306 306 306 304 304 304 302 302 304 306 304 301 302 303 297 296 297 296 297 296 298 298 299 300 299 302 304 304 305 304 304 304 305 306 306 306 309 309 311 319
306 311 308 308 307 307 307 307 306 306 306 305 305 306 306 306 306 305 304 304 303 303 303 305 304 304 307 308 307 297 298 296 297 299 297 299 298 298 301 301 303 303 304 304 304 304 303 304 305 307 307 308 314 315
308 311 311 310 309 309 309 309 308 307 306 306 306 306 306 306 305 305 305 304 303 302 304 304 306 306 303 308 310 308 303 303 299 301 299 299 300 302 302 302 303 303 304 304 304 305 304 305 306 307 306 309 311 311
310 312 312 311 310 310 310 310 308 307 307 307 307 306 308 306 305 304 302 303 301 301 301 302 303 307 303 304 308 309 309 311 310 307 300 301 304 303 303 301 303 302 302 303 304 305 306 305 305 305 306 307 311 311
310 313 312 311 312 312 312 311 308 308 309 308 308 308 307 306 305 303 304 304 302 303 299 301 302 305 303 306 306 307 310 311 314 312 311 311 308 305 303 305 304 303 302 303 303 304 304 304 305 305 306 307 309 308
311 313 313 312 313 314 313 310 309 309 308 307 307 307 306 306 306 307 307 303 303 306 303 303 304 304 304 306 307 309 311 310 314 309 313 315 313 312 312 312 311 307 306 304 303 303 304 304 304 305 305 306 307 307
312 313 313 313 314 315 313 311 309 309 309 308 308 310 311 311 316 317 317 314 310 305 303 304 307 306 306 306 309 309 311 313 307 312 315 312 311 311 312 312 313 312 310 309 309 306 304 304 304 305 306 306 306 307
312 314 314 315 316 315 313 313 310 311 310 311 317 314 320 321 321 320 321 320 316 308 305 305 309 309 309 308 307 308 309 305 311 313 313 312 314 315 317 318 311 313 312 310 309 310 311 310 309 306 306 306 307 308
314 314 316 316 317 314 314 313 314 314 313 315 315 317 317 316 315 315 314 314 310 307 306 309 309 309 308 308 304 307 310 314 311 312 312 312 316 316 317 318 310 311 310 308 308 309 309 310 310 311 308 307 310 316
315 315 316 316 314 314 315 315 314 315 315 314 314 316 314 314 313 312 312 312 305 303 306 310 314 314 316 315 317 315 313 316 319 317 315 312 313 314 317 318 318 311 307 306 307 307 308 310 309 308 308 310 317 320
315 316 314 314 315 315 314 316 317 317 316 316 316 310 312 311 311 310 309 310 305 307 314 316 319 322 319 320 321 320 320 319 319 315 310 308 307 307 308 311 312 316 316 316 317 311 308 309 306 310 320 325 325 326
315 315 314 316 318 315 317 316 316 316 319 314 315 314 311 310 309 308 308 306 307 309 312 316 313 316 317 318 316 315 315 316 314 311 307 307 306 306 305 305 304 306 310 311 311 315 320 321 322 323 323 323 322 322
316 319 319 319 317 316 317 317 315 318 315 315 314 313 310 309 307 306 305 307 306 305 306 308 311 313 312 309 311 311 311 311 313 309 302 301 302 305 305 305 303 303 303 305 305 306 308 315 317 318 320 320 319 319
321 320 319 319 317 316 318 315 315 315 317 317 316 315 311 311 308 307 308 306 305 305 307 309 311 311 310 308 306 304 303 303 306 303 302 300 300 300 301 302 303 303 302 302 303 302 304 307 310 318 318 319 320 319
320 320 320 319 320 318 315 313 312 310 315 316 316 315 315 313 314 312 310 306 306 307 307 307 307 306 305 302 301 302 302 300 299 299 299 298 298 298 298 298 299 299 300 301 302 303 303 304 305 315 316 316 317 318
319 320 320 321 319 316 313 312 311 310 313 315 312 313 314 316 315 315 309 309 309 309 307 306 305 304 303 301 299 299 300 300 299 298 297 296 296 296 296 297 297 297 298 298 299 301 304 306 308 315 316 315 314 313
320 320 322 319 319 311 315 314 314 311 317 318 314 316 316 316 315 314 310 307 306 306 307 306 306 304 299 299 298 298 297 297 296 295 296 295 296 295 295 296 295 295 296 297 296 298 300 307 308 309 312 312 312 311
321 319 318 315 314 312 315 316 311 311 313 315 319 319 316 316 313 313 310 309 309 307 305 305 304 300 298 297 295 295 295 295 294 294 294 294 294 295 294 294 295 295 294 296 297 298 299 301 305 305 304 303 303 304
312 313 311 306 313 315 317 313 313 312 317 315 319 318 312 313 312 311 310 308 305 304 303 304 304 297 296 295 295 295 295 295 293 292 293 293 293 294 294 294 295 295 295 295 295 297 298 298 299 299 298 299 299 298
314 317 312 317 316 316 316 314 312 313 314 314 313 308 305 307 308 308 305 304 304 303 304 304 305 298 294 294 293 294 295 294 294 293 293 293 292 292 292 292 292 294 295 295 295 297 297 297 298 298 298 298 297 297
315 319 314 311 315 315 315 313 310 313 315 314 309 308 307 308 308 305 302 302 302 305 306 306 306 298 295 295 295 295 294 294 293 292 293 292 292 292 292 291 291 292 295 296 296 296 296 296 295 296 296 296 296 296
315 317 319 316 316 313 316 314 313 314 312 306 305 308 309 307 306 303 303 306 307 307 300 300 299 297 296 296 295 295 294 294 293 293 293 292 293 293 293 294 294 295 296 296 296 296 295 295 294 294 294 294 293 293
319 316 317 317 315 314 315 314 312 309 306 305 306 307 306 304 304 305 307 306 304 299 298 297 296 296 296 295 294 293 293 293 292 292 291 291 291 291 293 294 294 295 295 295 295 295 295 294 294 294 294 294 294 294
317 314 318 318 315 317 314 309 308 305 303 304 304 304 304 306 307 309 307 301 299 299 299 298 297 297 296 295 293 293 293 293 293 292 291 291 290 292 294 294 294 294 294 294 294 294 294 294 294 294 294 293 293 293
314 315 318 317 318 314 309 306 307 308 307 309 306 306 308 307 307 302 302 300 300 300 298 298 297 297 296 296 294 293 293 293 293 293 293 293 292 292 292 293 293 293 293 294 294 293 293 293 292 292 292 292 292 292
315 315 318 319 315 309 309 310 310 310 310 310 310 307 307 308 308 304 300 300 303 300 299 297 297 297 296 296 296 295 294 294 293 293 293 293 293 293 293 292 292 292 292 293 293 293 292 292 292 292 292 292 293 293
316 315 316 315 311 311 311 312 313 313 313 314 315 312 309 310 311 304 304 301 300 300 298 297 296 297 297 296 295 294 294 293 293 293 293 293 292 292 292 293 293 292 292 292 292 292 292 292 292 293 293 293 293 293
Wind_Speed
35 35 34 32 29 26 25 24 23 22 21 20 20 20 19 17 14 14 6 14 9 3 5 8 5 4 3 1 2 5 7 5 4 6 3 3 3 3 2 3 3 2 2 1 0 1 2 20 4 6 6 6 9 12
36 36 35 31 29 27 26 24 23 21 20 19 19 18 17 16 13 12 6 11 17 4 6 16 20 22 16 18 3 3 3 2 3 3 3 2 2 3 4 2 5 3 2 2 1 4 0 4 7 2 4 5 6 9
38 38 32 30 27 25 23 22 20 19 18 18 17 16 15 15 12 9 12 13 5 2 5 2 7 6 12 24 21 3 3 3 1 2 1 1 2 2 3 3 4 6 2 2 2 1 8 3 3 8 6 7 12 12
39 37 29 27 24 23 22 20 19 18 17 16 15 14 13 12 10 7 14 13 7 1 2 5 6 9 4 5 19 30 6 4 2 2 2 1 1 2 1 3 2 3 5 2 2 5 7 2 9 14 13 14 16 16
39 34 27 26 24 22 21 20 19 17 16 14 13 13 12 10 7 6 8 15 17 4 3 4 15 8 2 8 19 22 13 3 1 2 1 2 2 2 2 1 2 2 2 2 2 2 3 7 10 14 14 16 18 17
37 32 26 24 23 21 20 19 18 17 15 13 11 11 11 9 5 3 1 3 9 10 1 3 5 4 7 3 13 12 10 3 2 3 3 3 3 1 2 3 5 3 0 3 2 4 5 10 12 4 12 16 17 15
35 31 26 24 23 22 19 17 16 16 14 12 10 10 8 3 4 2 1 2 7 12 2 3 4 4 4 1 2 2 6 3 3 2 2 3 2 2 1 4 7 7 8 8 9 6 10 1 7 12 10 14 16 11
34 30 25 23 21 19 18 18 17 17 15 12 8 6 6 6 3 2 5 10 15 3 1 2 3 4 7 3 3 2 3 1 2 3 2 3 1 2 4 12 18 17 16 16 16 14 12 13 8 9 5 9 14 12
34 29 25 22 18 17 18 19 19 17 13 7 2 4 3 3 2 2 3 10 5 4 1 1 2 3 6 2 2 1 2 1 0 3 3 5 4 6 6 9 14 14 9 13 7 8 7 8 9 8 7 10 10 14
34 29 25 21 17 16 16 17 18 14 6 4 3 1 2 3 11 6 3 2 2 2 1 2 3 2 4 3 1 2 2 2 2 2 2 3 7 18 17 12 14 12 13 13 14 14 8 6 9 9 7 7 6 10
33 29 24 19 15 14 15 16 15 8 2 2 2 2 2 7 0 2 1 1 1 1 1 2 2 3 1 1 2 2 2 1 2 1 1 2 3 4 6 9 15 18 16 15 14 15 13 8 7 7 7 7 9 12
34 29 23 17 12 11 15 14 12 3 2 2 2 3 2 0 0 1 0 1 2 1 2 2 2 2 2 2 2 2 2 1 3 4 2 3 4 7 9 15 16 9 8 13 16 19 18 16 11 8 9 9 11 21
34 27 21 13 7 11 17 15 7 1 3 2 1 1 1 1 5 5 6 4 3 3 3 3 1 2 1 1 2 1 3 3 4 1 3 4 9 15 18 20 20 20 18 13 11 12 19 18 20 14 10 18 21 21
34 25 16 5 7 16 20 13 2 3 2 0 2 6 4 5 4 3 3 3 1 2 3 2 1 1 1 0 2 2 2 2 3 2 3 5 16 16 14 14 12 11 15 14 14 11 10 8 9 14 20 22 21 18
31 21 1 4 13 18 14 3 4 4 2 3 3 5 3 3 4 5 4 2 1 3 2 1 1 1 1 1 0 2 3 4 2 3 3 9 14 19 16 13 7 4 4 6 7 8 11 9 7 11 21 24 24 23
26 9 2 12 18 16 3 4 2 2 2 2 5 4 4 3 5 5 4 3 2 2 1 1 1 1 2 2 4 3 2 6 10 6 10 14 18 21 20 19 15 1 4 6 7 10 13 11 10 17 22 22 21 21
16 3 11 17 14 8 3 2 1 2 2 3 1 1 2 3 4 4 3 4 3 2 2 0 5 5 2 5 6 5 6 7 7 9 8 12 14 17 18 20 21 18 15 12 4 9 13 17 17 13 8 8 12 16
3 12 10 9 11 3 1 1 1 2 3 1 2 2 2 1 3 4 5 4 3 3 3 3 3 6 5 6 4 4 4 3 3 4 6 9 12 13 16 14 21 25 20 23 22 21 11 6 5 3 9 11 14 13
17 8 3 10 8 2 1 2 2 1 1 1 1 3 2 2 2 4 3 10 6 3 3 4 6 4 3 3 6 7 6 4 3 4 5 14 16 18 21 21 21 18 20 22 24 18 18 16 11 8 10 9 11 14
5 3 10 7 2 1 2 2 2 3 3 3 4 4 3 2 4 3 8 6 4 3 7 4 2 2 3 3 3 4 3 3 3 4 5 8 18 18 20 19 18 21 21 21 23 26 25 22 21 14 15 11 10 13
2 6 6 5 2 3 3 2 3 1 2 3 3 4 4 4 8 6 5 4 4 3 3 2 3 3 11 7 10 8 9 11 4 2 3 4 15 16 20 22 23 24 18 17 10 15 21 17 21 15 14 14 17 18
3 6 2 2 3 3 4 4 3 0 3 4 3 1 1 1 3 4 2 5 2 2 2 2 4 3 5 8 13 18 14 13 17 14 16 16 7 6 11 17 19 14 18 19 18 15 18 22 26 19 17 18 23 25
5 3 1 3 2 5 2 2 3 3 3 3 3 3 2 1 2 2 3 2 2 2 3 4 8 8 8 16 21 22 21 17 12 14 16 16 15 19 19 20 20 18 15 22 23 21 20 24 29 24 22 23 22 24
4 3 3 3 2 1 1 3 2 2 3 2 1 3 2 2 3 3 2 2 3 4 7 11 11 4 9 14 7 11 19 15 14 17 22 17 13 15 19 18 21 23 25 25 23 22 23 23 24 24 21 23 25 26
3 5 4 5 3 5 4 3 2 2 2 3 2 3 2 1 2 1 1 2 2 2 2 7 5 5 2 1 6 13 15 15 11 7 20 22 18 20 23 23 23 22 27 25 23 19 20 21 23 24 25 25 25 25
4 2 3 0 2 2 1 3 2 1 2 2 2 1 2 2 2 1 2 2 2 2 2 1 1 1 3 5 3 8 11 10 12 13 18 21 21 14 11 8 9 19 26 20 15 14 18 18 18 21 22 23 23 21
2 1 1 0 2 1 1 1 1 3 2 2 2 2 2 2 1 2 2 3 3 3 5 3 5 6 6 7 7 10 14 12 8 10 14 18 21 20 16 12 13 17 19 15 13 15 16 18 18 17 17 20 19 17
2 2 1 1 0 1 0 1 1 1 2 2 3 2 3 4 4 3 4 2 5 3 6 10 10 10 9 8 9 10 14 14 19 19 5 22 22 24 21 21 20 16 18 18 16 18 20 21 21 19 19 19 21 23
1 2 2 1 0 0 1 2 2 2 4 3 4 3 3 2 2 3 1 3 7 13 14 14 12 10 9 8 8 10 12 15 17 8 9 7 10 18 23 22 20 19 17 17 16 15 16 17 17 17 17 16 15 16
3 3 2 2 2 2 2 3 3 2 2 2 3 2 1 1 1 0 3 16 15 10 8 8 10 4 2 1 4 7 9 10 12 11 3 3 9 16 17 18 18 18 16 16 16 17 16 15 15 17 19 19 19 20
3 2 1 1 1 1 1 3 4 3 2 2 1 3 3 1 2 5 8 12 12 7 10 8 6 3 1 3 2 0 3 6 8 10 11 12 13 15 15 16 17 17 18 17 18 18 18 19 20 19 19 18 18 18
4 5 4 3 1 1 1 2 2 2 1 2 1 2 2 3 1 2 4 11 6 7 10 8 5 3 3 4 4 0 5 5 8 11 12 11 13 13 14 15 14 15 15 14 15 15 15 17 18 17 15 15 14 13
2 2 3 3 2 2 3 3 2 1 1 0 1 2 2 3 2 4 4 7 5 6 9 8 8 7 5 5 5 6 3 6 9 11 11 12 11 11 11 12 13 15 16 15 14 12 12 13 15 14 14 12 10 9
Wind_Direction
329 327 325 323 320 315 311 311 307 306 302 299 298 296 297 298 299 235 224 209 199 235 270 221 219 199 294 259 250 307 345 359 339 36 29 330 331 0 344 41 358 80 73 67 53 158 112 342 11 85 292 297 305 314
330 329 327 325 320 317 315 313 311 309 304 300 297 299 297 296 295 260 209 211 220 232 250 293 281 267 241 224 142 351 230 229 262 17 3 320 339 338 328 87 346 44 124 184 146 142 180 325 123 198 262 261 294 310
334 333 330 325 325 325 324 321 317 311 304 300 299 300 301 299 296 268 212 183 187 262 284 311 254 308 254 238 227 189 262 247 333 186 218 276 333 338 4 19 317 350 54 67 67 327 336 211 348 352 328 313 323 327
336 337 332 331 330 329 327 326 324 318 311 305 303 302 303 301 298 265 221 216 183 284 283 284 328 271 262 244 213 214 237 28 8 32 56 354 293 29 306 314 313 242 338 349 348 338 352 85 350 340 334 342 342 341
338 339 335 332 333 333 331 330 329 325 319 314 307 305 306 304 294 273 266 233 202 175 280 282 301 303 161 222 211 217 217 127 334 341 28 270 258 7 308 334 251 235 260 111 182 238 219 274 314 320 342 341 339 340
338 340 336 333 334 332 334 336 334 330 326 324 320 314 310 309 294 234 311 235 226 205 297 297 308 298 313 248 206 189 194 154 164 165 222 272 262 88 333 285 268 264 0 93 242 292 234 279 289 303 332 328 330 336
339 339 337 335 333 332 335 337 338 340 336 334 333 329 324 283 211 161 182 167 158 157 240 291 297 283 312 29 105 130 150 184 162 179 201 198 293 104 195 243 219 255 264 269 277 313 305 285 306 319 320 318 322 332
339 339 337 337 335 334 338 339 340 336 339 335 335 16 49 108 135 140 193 158 154 126 17 303 282 320 7 352 342 151 133 127 236 205 86 162 41 96 253 242 256 253 260 268 264 271 260 279 293 295 304 321 332 339
338 339 337 334 333 336 340 341 342 342 341 345 71 86 80 59 63 28 100 161 115 85 309 259 288 297 351 342 292 348 110 188 215 201 218 140 176 223 236 255 262 266 247 264 251 234 236 258 269 285 309 319 322 318
338 339 336 329 327 335 338 338 341 347 7 58 75 49 64 43 121 108 56 65 42 52 28 252 310 275 357 339 326 340 339 313 294 258 102 195 243 246 248 236 247 245 240 243 257 264 236 226 254 272 272 285 283 298
336 338 337 328 325 337 340 338 343 359 55 49 45 62 112 152 92 48 84 0 105 268 226 252 263 291 326 274 324 341 316 293 250 279 209 273 273 269 328 278 259 252 244 244 236 246 246 233 206 241 269 269 288 293
336 337 334 328 324 343 344 344 344 13 63 97 128 124 160 331 226 248 77 155 189 275 190 234 246 215 264 248 230 291 277 220 242 353 253 239 261 258 277 279 269 242 237 242 237 246 250 246 226 211 251 265 261 281
337 339 332 322 332 356 349 339 347 40 123 116 127 139 55 0 0 25 345 323 328 186 209 201 232 240 221 241 285 290 277 253 333 313 260 249 279 291 291 285 271 254 225 227 241 244 245 246 242 214 218 246 260 273
338 339 330 323 351 352 344 342 80 138 131 98 25 15 50 356 351 306 299 281 321 131 168 203 214 228 215 130 354 284 314 334 345 258 268 281 313 314 311 319 306 270 224 213 231 240 237 231 244 235 227 230 241 255
338 338 341 347 341 338 343 33 109 115 89 38 39 29 19 308 272 264 268 293 119 124 140 194 230 42 9 78 83 312 329 351 340 290 291 294 328 342 339 348 323 341 162 188 214 229 244 245 243 248 242 236 234 242
338 332 289 336 335 343 33 92 76 77 74 63 49 25 312 356 322 349 333 332 157 155 165 180 249 256 64 25 336 26 358 26 2 358 359 358 354 353 2 7 7 348 231 232 231 239 251 253 245 233 233 231 237 253
343 2 329 330 345 2 133 12 36 62 98 61 342 136 186 255 250 286 312 311 150 154 5 302 34 7 325 12 15 9 15 353 355 5 5 2 1 358 360 7 3 13 19 23 6 249 237 247 231 221 212 232 243 251
335 325 326 341 347 346 347 18 46 80 77 168 98 301 321 277 316 327 325 330 24 16 30 55 57 20 42 358 339 327 314 319 342 349 350 354 357 360 14 11 13 12 5 15 15 20 21 82 126 102 120 97 71 59
329 339 350 339 341 335 64 49 38 88 157 131 277 110 92 328 306 278 321 355 4 51 71 39 49 17 346 323 311 328 335 334 323 319 352 352 349 358 356 9 16 19 23 9 9 12 359 13 33 58 63 87 99 85
339 3 348 346 3 9 65 16 51 82 64 352 10 8 65 38 309 14 21 5 15 34 33 47 29 292 279 280 271 267 286 312 353 358 347 356 357 355 8 10 0 360 17 24 16 16 13 7 3 10 45 54 72 75
346 350 353 1 16 50 75 25 51 77 72 73 59 18 350 356 22 25 17 350 39 43 18 337 305 289 311 324 6 7 20 32 25 12 302 323 342 6 9 4 7 17 13 9 9 11 15 4 347 1 40 41 50 65
333 335 329 358 31 31 66 21 116 64 66 124 86 94 290 355 21 7 0 28 52 349 329 307 307 301 340 3 2 24 25 39 36 23 20 17 14 1 357 359 7 7 8 8 4 0 8 13 13 23 38 55 60 56
343 350 15 29 88 41 301 354 72 23 98 116 141 154 170 133 97 323 69 10 269 296 321 332 336 2 24 33 38 35 30 32 28 17 7 359 9 16 11 12 14 10 360 359 0 8 13 24 29 27 39 49 52 52
358 29 40 42 63 347 2 35 54 71 107 151 127 87 48 42 8 53 58 298 273 358 14 7 9 6 34 36 19 13 24 34 31 24 16 9 8 358 9 11 15 14 8 3 8 15 22 27 39 36 43 56 52 47
55 336 66 344 10 27 25 8 18 59 66 31 72 76 37 352 93 109 201 273 298 313 354 11 26 44 76 3 23 35 35 33 31 20 19 24 14 15 10 5 6 18 13 9 1 17 31 40 47 48 46 51 54 53
64 330 85 337 347 56 334 355 35 76 108 76 73 116 59 95 100 198 234 240 255 270 308 49 137 40 39 55 36 16 3 23 42 42 29 30 26 16 358 354 350 348 2 4 6 40 48 48 49 57 58 52 52 57
42 331 345 327 140 210 26 338 160 87 83 111 160 107 105 82 134 252 271 230 228 281 325 319 169 142 124 102 66 48 42 38 42 57 41 32 25 21 15 355 337 345 12 17 35 57 67 64 59 57 56 56 54 53
181 157 204 269 282 106 68 354 74 115 155 151 95 108 136 160 198 221 208 269 294 328 108 109 125 124 113 92 73 59 47 41 40 39 33 31 32 27 32 36 40 46 47 48 55 59 64 67 66 63 63 61 58 56
185 190 139 314 107 317 232 189 174 200 160 143 136 177 195 217 207 187 158 355 145 140 125 120 121 119 110 98 82 65 53 40 35 26 21 11 5 8 33 35 34 37 45 55 59 60 56 55 53 58 62 61 61 54
252 163 163 166 164 232 238 166 169 152 141 138 123 84 36 270 143 89 145 146 147 146 156 158 157 166 140 91 91 66 57 43 38 39 27 2 358 18 33 34 34 36 42 48 53 56 56 56 54 50 48 48 46 44
128 134 100 133 173 277 188 134 101 93 84 72 67 117 148 165 66 70 119 142 122 121 147 152 173 193 288 310 300 354 5 39 32 32 30 28 26 28 30 31 35 42 43 45 48 48 49 50 47 41 35 30 29 31
172 194 162 156 174 307 345 67 78 78 57 69 48 72 48 37 71 9 98 134 141 181 196 186 148 98 45 19 10 324 100 45 24 15 10 6 13 17 22 27 31 31 34 35 33 36 39 41 34 31 29 30 30 38
127 140 109 116 129 202 230 98 79 47 41 160 226 169 166 145 97 61 123 250 272 206 164 133 107 85 50 31 78 103 37 5 360 359 3 3 354 352 360 11 17 14 10 12 15 17 23 29 27 31 31 31 36 34